Showing default

EUTE 36B (EUTE W7), 36101

Orbit data source: Space-Track

EUTE 36B (EUTE W7), 36101 is a payload satellite owned by EutelsatSA (FR) in GEO that was launched on Tue, 24 Nov 2009 UTC via a PROTON-M/BRIZ-M launch vehicle from the Tyuratam Missile And Space Complex (TTMTR). Payloads include a variety of satellites, spacecraft, and rockets equipped with specific instruments for various scientific and technological missions. These include communications satellites like Starlink; space stations such as the ISS; scientific satellites like the Hubble; Earth observation satellites from companies like Planet Labs, Umbra, and HawkEye 360; GPS; miniature CubeSats for education and research; and military/defense satellites.

Not visible in the next 10 days
EUTE 36B (EUTE W7) details
Identifier
36101, 2009-065A
Orbit
GEO
Last TLE update23 hours ago
Origin
Flag of FREutelsatSA (FR / EUTE)
ManufacturerThales Alenia
MissionOperational Commercial Communications
Bus & MotorSPACEBUS 4000C4, S400
Mass5,627 kg wet, ~2,800 kg dry
Launch date (UTC)
2009-11-24 (15 years ago)
Launch vehicle
PROTON-M/BRIZ-M
Launch site
Tyuratam Missile And Space Complex (TTMTR)
Object type
Payload
Rocket body
Debris
Shape & HBRBox + 2 Pan + 1 Dish, 34 m
Radar Cross Section44.769 m², Large (>1 m²)

Expand to show TLE details & history

TLE from 23 hours ago
0 EUTE 36B (EUTE W7)
1 36101U 09065A   24360.53904650  .00000139  00000-0  00000-0 0  9991
2 36101   0.0621 359.9296 0005834 289.3725  49.7671  1.00271924 55304
Epoch: 2024-12-25T12:56Z
Definitive object data (Epoch: 2024-12-25T12:56:13.617Z)
Latitude-0.02818°
Longitude50.52556°
Altitude35,770.171 km
Speed3.076 km/s
True Right ascension22h 36m 27s
True Declination0° 01' 41"
Sunlit
Object was in daylight at TLE epoch
Visualization TLE readout
Latitude-0.05068°
Longitude33.86589°
Altitude35,765.312 km
Speed3.076 km/s
Apparent Right ascension21h 39m 44s
Apparent Declination-5° 01' 58"
Sunlit
Object is in daylight
Visualization observer readout
Local Sidereal Time11:07:17
Azimuth35.229° NE
Elevation-49.929°
Doppler factor1
Orbital elements
Apogee altitude35,812.226 km
Perigee altitude35,763.027 km
Semi-major axis42,165.763 km
Eccentricity0.0005834
Inclination0.0621°
RAAN359.9296°
Arg. of periapsis289.3725°
True anomaly49.81816°
Mean anomaly49.7671°
Eccentric anomaly49.79263°
Mean motion0.25067 °/min
BSTARUnknown
Orbital period1436.15 mins
Loading historical data...
36101 neighbors
Authenticating...
Loading maneuver chart data...
Loading historical data...
Loading historical data...
Loading historical data...
Loading historical data...
Loading historical data...
Loading historical data...
Loading historical data...
Other satellites on launch #65 in the year 2009 (2009-11-24 UTC)

EUTE 36B (EUTE W7) Visibility forecast

Observer location: undefined°, undefined

EUTE 36B (EUTE W7) is not visible in the next 10 days
Span
Click to sort rows by Start time (UTC) header in descending order
Start Az.
Max El. time (UTC)
Max El. Az.
Max El.
End time (UTC)
End Az.
|